Sheboygan, WI

12:22 AM CST on January 20, 2018 (GMT -0600)
Sheboygan County Memorial

Weather History for KSBM - April, 2013

Change the Weather History Date:

Friday, April 19, 2013

  Actual Average Record
Temperature  
Mean Temperature 34 °F -  
Max Temperature 39 °F 53 °F 80 °F (2005)
Min Temperature 28 °F 37 °F 24 °F (1983)
Degree Days  
Heating Degree Days 30    
Moisture  
Dew Point 28 °F    
Average Humidity 74    
Maximum Humidity 83    
Minimum Humidity 59    
Precipitation  
Precipitation 0.01 in - - ()
Sea Level Pressure  
Sea Level Pressure 29.44 in    
Wind  
Wind Speed 21 mph (West)    
Max Wind Speed 31 mph    
Max Gust Speed 44 mph    
Visibility 8 miles    
Events Snow    
Averages and records for this station are not official NWS values.
T = Trace of Precipitation, MM = Missing Value Source: NWS Daily Summary

Daily Weather History Graph

Daily Weather History Graph

Search for Another Location

Airport or City:

Trip Planner

Search our weather history database for the weather conditions in past years. The results will help you decide how hot, cold, wet, or windy it might be!

Date:

Astronomy

Apr. 19, 2013 Rise Set
Actual Time 6:01 AM CDT 7:40 PM CDT
Civil Twilight 5:31 AM CDT 8:10 PM CDT
Nautical Twilight 4:54 AM CDT 8:47 PM CDT
Astronomical Twilight 4:15 AM CDT 9:27 PM CDT
Moon 1:12 PM CDT (4/19) 2:29 AM CDT (4/19)
Length of Visible Light 14h 39m
Length of Day
13h 38m
First Quarter, 62% of the Moon is Illuminated
Apr 19
First Quarter
Apr 25
Full
May 2
Last Quarter
May 9
New
May 17
First Quarter

Hourly Weather History & Observations

Time (CDT) Temp. Windchill Dew Point Humidity Pressure Visibility Wind Dir Wind Speed Gust Speed Precip Events Conditions
12:53 AM 39.9 °F 30.2 °F 33.1 °F 77% 29.37 in 10.0 mi SW 20.7 mph 27.6 mph N/A   Overcast
1:33 AM 39.2 °F 30.5 °F 33.8 °F 81% 29.34 in 10.0 mi SW 16.1 mph 28.8 mph N/A   Overcast
1:41 AM 39.2 °F 28.7 °F 33.8 °F 81% 29.35 in 10.0 mi SW 23.0 mph 28.8 mph N/A   Overcast
1:53 AM 37.9 °F 28.5 °F 33.1 °F 83% 29.37 in 10.0 mi SW 17.3 mph - N/A   Overcast
2:53 AM 37.0 °F 27.0 °F 30.9 °F 79% 29.34 in 10.0 mi SSW 18.4 mph 25.3 mph N/A   Overcast
3:31 AM 37.4 °F 27.2 °F 30.2 °F 75% 29.32 in 10.0 mi SSW 19.6 mph 27.6 mph N/A   Overcast
3:53 AM 37.0 °F 25.4 °F 30.0 °F 76% 29.34 in 10.0 mi SW 25.3 mph 32.2 mph N/A   Overcast
4:41 AM 35.6 °F 25.2 °F 30.2 °F 81% 29.31 in 10.0 mi SW 18.4 mph 29.9 mph N/A   Overcast
4:53 AM 36.0 °F 25.6 °F 30.0 °F 79% 29.33 in 10.0 mi SW 18.4 mph 26.5 mph N/A   Overcast
5:20 AM 35.6 °F 24.0 °F 28.4 °F 75% 29.30 in 10.0 mi SW 23.0 mph 29.9 mph N/A   Overcast
5:44 AM 35.6 °F 25.5 °F 28.4 °F 75% 29.30 in 10.0 mi WSW 17.3 mph 27.6 mph N/A   Overcast
5:53 AM 36.0 °F 25.3 °F 28.9 °F 76% 29.32 in 10.0 mi SW 19.6 mph 27.6 mph N/A   Overcast
6:53 AM 35.1 °F 24.1 °F 28.9 °F 78% 29.32 in 10.0 mi SW 19.6 mph 31.1 mph N/A   Overcast
7:53 AM 36.0 °F 24.2 °F 28.9 °F 76% 29.32 in 10.0 mi WSW 24.2 mph 33.4 mph N/A   Overcast
8:04 AM 35.6 °F 24.0 °F 28.4 °F 75% 29.30 in 10.0 mi WSW 23.0 mph 33.4 mph N/A   Overcast
8:11 AM 35.6 °F 24.0 °F 28.4 °F 75% 29.30 in 10.0 mi SW 23.0 mph 32.2 mph N/A   Overcast
8:43 AM 37.4 °F 25.9 °F 30.2 °F 75% 29.30 in 10.0 mi WSW 25.3 mph 32.2 mph N/A   Overcast
8:53 AM 36.0 °F 23.9 °F 28.9 °F 76% 29.31 in 10.0 mi WSW 25.3 mph 33.4 mph N/A   Overcast
9:19 AM 37.4 °F 25.6 °F 28.4 °F 70% 29.30 in 10.0 mi WSW 26.5 mph 40.3 mph N/A   Overcast
9:53 AM 39.0 °F 28.0 °F 30.9 °F 73% 29.33 in 10.0 mi WSW 25.3 mph 36.8 mph 0.00 in   Overcast
10:12 AM 35.6 °F 22.3 °F 30.2 °F 81% 29.33 in 2.0 mi West 31.1 mph 39.1 mph 0.00 in Snow Light Snow
10:19 AM 35.6 °F 24.5 °F 30.2 °F 81% 29.33 in 1.2 mi West 20.7 mph 39.1 mph 0.00 in Snow Light Snow
10:24 AM 35.6 °F 23.0 °F 30.2 °F 81% 29.33 in 3.0 mi West 27.6 mph 32.2 mph 0.01 in Snow Light Snow
10:53 AM 37.0 °F 27.4 °F 30.9 °F 79% 29.36 in 4.0 mi West 17.3 mph 35.7 mph 0.01 in Snow Light Snow
11:04 AM 35.6 °F 23.2 °F 28.4 °F 75% 29.35 in 5.0 mi West 26.5 mph 35.7 mph 0.00 in Snow Light Snow
11:41 AM 35.6 °F 23.7 °F 28.4 °F 75% 29.37 in 9.0 mi West 24.2 mph 35.7 mph 0.00 in Snow Light Snow
11:51 AM 35.6 °F 24.2 °F 28.4 °F 75% 29.38 in 10.0 mi West 21.9 mph 29.9 mph 0.00 in   Overcast
11:53 AM 36.0 °F 25.0 °F 28.9 °F 76% 29.40 in 10.0 mi West 20.7 mph 32.2 mph 0.00 in   Overcast
12:53 PM 36.0 °F 25.0 °F 27.0 °F 70% 29.43 in 7.0 mi West 20.7 mph 36.8 mph 0.00 in Snow Light Snow
1:15 PM 33.8 °F 21.3 °F 28.4 °F 81% 29.42 in 1.8 mi West 24.2 mph 32.2 mph 0.00 in Snow Light Snow
1:27 PM 35.6 °F 24.0 °F 26.6 °F 70% 29.43 in 3.0 mi West 23.0 mph 40.3 mph 0.00 in Snow Light Snow
1:53 PM 37.9 °F 26.6 °F 28.0 °F 68% 29.46 in 10.0 mi West 25.3 mph 40.3 mph 0.00 in   Overcast
2:53 PM 37.0 °F 25.6 °F 26.1 °F 65% 29.50 in 9.0 mi WNW 24.2 mph 33.4 mph 0.00 in   Overcast
3:53 PM 36.0 °F 24.7 °F 27.0 °F 70% 29.54 in 8.0 mi West 21.9 mph 32.2 mph 0.00 in Snow Light Snow
4:53 PM 37.0 °F 25.6 °F 26.1 °F 65% 29.59 in 9.0 mi West 24.2 mph 33.4 mph 0.00 in   Overcast
5:10 PM 33.8 °F 21.6 °F 24.8 °F 70% 29.60 in 1.8 mi WNW 23.0 mph 43.7 mph 0.00 in Snow Light Snow
5:19 PM 33.8 °F 22.5 °F 26.6 °F 75% 29.59 in 3.0 mi West 19.6 mph 26.5 mph 0.00 in Snow Light Snow
5:53 PM 35.1 °F 25.2 °F 27.0 °F 72% 29.63 in 10.0 mi West 16.1 mph 29.9 mph 0.00 in   Overcast
6:53 PM 34.0 °F 22.4 °F 24.1 °F 67% 29.67 in 10.0 mi NW 20.7 mph 29.9 mph N/A   Mostly Cloudy
7:53 PM 34.0 °F 24.6 °F 23.0 °F 64% 29.71 in 10.0 mi WNW 13.8 mph 23.0 mph N/A   Mostly Cloudy
8:53 PM 32.0 °F 25.6 °F 24.1 °F 73% 29.77 in 10.0 mi NW 6.9 mph - 0.00 in   Mostly Cloudy
9:53 PM 30.9 °F 20.2 °F 18.0 °F 59% 29.81 in 10.0 mi NW 15.0 mph 25.3 mph 0.00 in   Partly Cloudy
10:53 PM 30.0 °F 19.5 °F 19.0 °F 64% 29.84 in 10.0 mi NNW 13.8 mph 21.9 mph N/A   Mostly Cloudy
11:53 PM 28.9 °F 18.2 °F 19.0 °F 67% 29.88 in 10.0 mi NW 13.8 mph - N/A   Mostly Cloudy